Погода в Бельцово

Россия / Приморский край     44°49′39″N   133°34′09″E
темп.,
°C
ветер,
м/с
пор.,
м/с
влажн.,
%
обл.,
%
осадки,
мм/ч
давл.,
гПа
погр.,
м
12 апреля, пн
пн1201:00+8ю3962100 0.0 1023287
04:00+7ююв267379 0.0 1023155
07:00+6ююв3880100 0.0 1022262
10:00+11ю4858100 0.0 1021495
13:00+16ююз61240100 0.0 10191392
16:00+15ююз61338100 0.0 10151637
19:00+13ю61444100 0.0 10131286
22:00+10ю41147100 0.0 1013686
13 апреля, вт
вт1301:00+8ююв31052100 0.0 1010430
04:00+7ю3872100 0.4 1008810
07:00+6ююв2890100 1.9 1004881
10:000сз61193100 5.5 1005582
13:00−1сз6980100 1.8 10071026
16:00+2сз594659 2.1 10081690
19:00+2сз410475 0.0 10081691
22:00−1сз411551 0.0 1011877
14 апреля, ср
ср1401:00−2зсз410574 0.0 1012954
04:00−3зсз49570 0.0 1012948
07:00−3з39570 0.0 1013800
10:00+1з593628 0.0 10132054
13:00+3з51233100 0.0 10123039
16:00+5зсз6123498 0.0 10112920
19:00+3з2544100 0.0 1011192
22:000ю1155100 0.0 101222
15 апреля, чт
чт1501:00−1юз126929 0.0 101431
04:00−2ю11785 0.0 101513
07:00−1ююв127082 0.0 101675
10:00+6ююв233857 0.0 1016443
13:00+12ююз36255 0.0 10131560
16:00+14юз5827100 0.0 10121704
19:00+10ююз3740100 0.0 1013307
22:00+8ююв41039100 0.0 1013406
16 апреля, пт
пт1601:00+6ююв3115143 0.0 1013478
04:00+6ююв41366100 0.0 1011854
07:00+5юв41269100 0.0 1010867
10:00+8ююв61255100 0.0 10081412
13:00+9ю61568100 1.3 10081650
16:00+10ю5116124 1.8 10061469
19:00+8ю386687 1.6 1008408
22:00+5юз277993 1.7 1012177